SCP
0 0 0 0 0 0 0 0 0 0 0 0 0 0 0 0 0 0 0 0 0 0 0 0 0 0 0 0 0 0 0 0 0 0 0 0 0 0 0 0 0 0 0 0
0 0 0 0 0 0 0 0 0 0 0 0 0 0 0 0 0 0 0 0 0 0 0 0 0 0 0 0 0 0 0 0 0 0 0 0 0 0 0 0 0 0 0 0
0 0 0 0 0 0 0 0 0 0 0 0 0 0 0 0 0 0 0 0 0 0 0 0 0 0 0 0 0 0 0 0 0 0 0 0 0 0 0 0 0 0 0 0
0 0 0 0 0 0 0 0 0 0 0 0 0 0 0 0 0 0 0 0 0 0 0 0 0 0 0 0 0 0 0 0 0 0 0 0 0 0 0 0 0 0 0 0
0 0 0 0 0 0 0 0 0 0 0 0 0 0 0 0 0 0 0 0 0 0 0 0 0 0 0 0 0 0 0 0 0 0 0 0 0 0 0 0 0 0 0 0
0 0 0 0 0 0 0 0 0 0 0 0 0 0 0 0 0 0 0 0 0 0 0 0 0 0 0 0 0 0 0 0 0 0 0 0 0 0 0 0 0 0 0 0
0 0 0 0 0 0 0 0 0 0 0 0 0 0 0 0 0 0 0 0 0 0 0 0 0 0 0 0 0 0 0 0 0 0 0 0 0 0 0 0 0 0 0 0
0 0 0 0 0 0 0 0 0 0 0 0 0 0 0 0 0 0 0 0 0 0 0 0 0 0 0 0 0 0 0 0 0 0 0 0 0 0 0 0 0 0 0 0
0 0 0 0 0 0 0 0 0 0 0 0 0 0 0 0 0 0 0 0 0 0 0 0 0 0 0 0 0 0 0 0 0 0 0 0 0 0 0 0 0 0 0 0
0 0 0 0 0 0 0 0 0 0 0 0 0 0 0 0 0 0 0 0 0 0 0 0 0 0 0 0 0 0 0 0 0 0 0 0 0 0 0 0 0 0 0 0
0 0 0 0 0 0 0 0 0 0 0 0 0 0 0 0 0 0 0 0 0 0 0 0 0 0 0 0 0 0 0 0 0 0 0 0 0 0 0 0 0 0 0 0
0 0 0 0 0 0 0 0 0 0 0 0 0 0 0 0 0 0 0 0 0 0 0 0 0 0 0 0 0 0 0 0 0 0 0 0 0 0 0 0 0 0 0 0
0 0 0 0 0 0 0 0 0 0 0 0 0 0 0 0 0 0 0 0 0 0 0 0 0 0 0 0 0 0 0 0 0 0 0 0 0 0 0 0 0 0 0 0
0 0 0 0 0 0 0 0 0 0 0 0 0 0 0 0 0 0 0 0 0 0 0 0 0 0 0 0 0 0 0 0 0 0 0 0 0 0 0 0 0 0 0 0
0 0 0 0 0 0 0 0 0 0 0 0 0 0 0 0 0 0 0 0 0 0 0 0 0 0 0 0 0 0 0 0 0 0 0 0 0 0 0 0 0 0 0 0
0 0 0 0 0 0 0 0 0 0 0 0 0 0 0 0 0 0 0 0 0 0 0 0 0 0 0 0 0 0 0 0 0 0 0 0 0 0 0 0 0 0 0 0
0 0 0 0 0 0 0 0 0 0 0 0 0 0 0 0 0 0 0 0 0 0 0 0 0 0 0 0 0 0 0 0 0 0 0 0 0 0 0 0 0 0 0 0
0 0 0 0 0 0 0 0 0 0 0 0 0 0 0 0 0 0 0 0 0 0 0 0 0 0 0 0 0 0 0 0 0 0 0 0 0 0 0 0 0 0 0 0
0 0 0 0 0 0 0 0 0 0 0 0 0 0 0 0 0 0 0 0 0 0 0 0 0 0 0 0 0 0 0 0 0 0 0 0 0 0 0 0 0 0 0 0
0 0 0 0 0 0 0 0 0 0 0 0 0 0 0 0 0 0 0 0 0 0 0 0 0 0 0 0 0 0 0 0 0 0 0 0 0 0 0 0 0 0 0 0
0 0 0 0 0 0 0 0 0 0 0 0 0 0 0 0 0 0 0 0 0 0 0 0 0 0 0 0 0 0 0 0 0 0 0 0 0 0 0 0 0 0 0 0
0 0 0 0 0 0 0 0 0 0 0 0 0 0 0 0 0 0 0 0 0 0 0 0 0 0 0 0 0 0 0 0 0 0 0 0 0 0 0 0 0 0 0 0
0 0 0 0 0 0 0 0 0 0 0 0 0 0 0 0 0 0 0 0 0 0 0 0 0 0 0 0 0 0 0 0 0 0 0 0 0 0 0 0 0 0 0 0
0 0 0 0 0 0 0 0 0 0 0 0 0 0 0 0 0 0 0 0 0 0 0 0 0 0 0 0 0 0 0 0 0 0 0 0 0 0 0 0 0 0 0 0
0 0 0 0 0 0 0 0 0 0 0 0 0 0 0 0 0 0 0 0 0 0 0 0 0 0 0 0 0 0 0 0 0 0 0 0 0 0 0 0 0 0 0 0
0 0 0 0 0 0 0 0 0 0 0 0 0 0 0 0 0 0 0 0 0 0 0 0 0 0 0 0 0 0 0 0 0 0 0 0 0 0 0 0 0 0 0 0
0 0 0 0 0 0 0 0 0 0 0 0 0 0 0 0 0 0 0 0 0 0 0 0 0 0 0 0 0 0 0 0 0 0 0 0 0 0 0 0 0 0 0 0
Wind_Speed_500mb
34 22 10 14 23 32 36 47 27 45 42 49 33 20 35 37 45 39 45 59 61 60 61 63 65 60 55 49 39 34 32 31 29 28 26 24 21 19 15 11 9 9 10 12
25 30 30 28 23 22 45 45 34 48 44 44 52 53 47 51 42 45 60 71 70 68 71 74 73 67 60 53 45 39 37 33 30 27 25 22 18 15 11 8 7 9 12 16
24 27 16 21 45 37 30 33 38 35 49 43 48 42 55 54 56 70 64 67 73 79 81 79 80 74 64 57 49 44 41 35 31 27 25 21 18 14 11 11 13 15 18 21
13 6 28 22 22 34 43 37 33 36 43 52 53 77 77 53 55 61 60 66 78 82 83 84 82 74 67 57 49 44 39 33 28 24 22 19 17 14 14 15 17 19 22 26
16 21 22 16 17 21 19 36 36 43 47 64 71 72 68 80 67 73 77 72 74 84 89 87 82 73 62 55 47 42 37 31 27 23 20 18 15 14 14 14 16 20 23 27
9 16 30 23 29 43 9 8 30 45 31 35 57 23 30 79 51 45 55 60 67 75 82 77 71 62 56 50 45 41 36 30 26 22 19 16 14 13 15 18 21 25 27 31
21 15 10 12 15 27 16 24 52 46 56 50 19 33 45 51 40 37 41 49 64 72 70 65 57 53 53 49 47 39 33 28 24 21 17 15 13 15 17 20 24 28 31 32
12 19 31 21 14 24 26 11 25 26 34 44 52 46 45 42 42 37 41 49 59 64 64 58 49 49 49 47 41 36 31 26 24 20 16 13 13 15 19 23 26 29 32 32
13 11 14 38 46 64 61 45 41 41 43 40 41 50 48 42 41 39 41 46 45 54 57 52 54 54 51 45 40 34 29 27 22 18 15 14 15 18 22 25 28 30 33 37
2 21 19 28 27 29 31 32 41 45 48 45 38 43 41 44 45 46 44 45 49 50 51 49 52 56 46 39 35 30 25 22 19 17 13 13 15 19 23 27 30 32 36 38
10 22 8 27 38 41 45 49 49 52 52 51 44 50 50 50 51 52 50 49 49 48 47 49 51 46 44 39 34 29 25 21 18 16 13 15 18 21 24 28 30 32 34 38
17 20 21 40 56 56 55 56 53 49 49 48 46 45 45 47 50 54 53 51 50 49 49 49 47 44 38 33 28 24 20 18 17 17 16 18 21 22 24 26 26 28 32 36
38 57 52 55 47 36 33 37 40 41 44 44 44 44 45 48 50 50 48 51 52 47 43 39 39 39 34 29 25 21 20 20 18 17 18 22 24 26 26 25 28 28 31 37
64 70 50 56 39 40 37 38 38 39 41 40 40 41 43 45 47 46 45 45 42 42 44 41 38 33 29 25 27 26 19 17 18 20 23 26 28 30 32 33 34 32 32 38
72 65 61 45 36 39 39 35 35 36 37 36 35 38 39 42 43 43 44 43 43 43 45 46 43 37 31 28 22 18 18 20 22 25 28 29 30 31 33 36 40 43 39 31
38 42 46 45 39 36 34 32 32 34 32 32 35 36 36 37 39 47 42 48 47 48 45 41 33 28 23 20 18 20 22 24 26 28 30 30 31 34 37 40 42 42 40 41
29 26 35 40 43 41 40 34 33 32 33 34 35 38 41 41 43 44 45 43 41 36 31 27 25 24 23 20 20 23 26 27 28 31 33 34 35 37 39 42 43 43 43 41
32 30 22 27 28 35 35 34 32 31 34 37 41 43 42 42 41 40 38 36 34 30 29 28 25 22 21 23 25 28 29 31 33 34 36 36 37 40 42 43 44 46 46 44
27 24 20 18 20 19 28 30 31 31 32 32 35 35 33 33 33 33 35 34 32 30 26 24 24 24 26 27 28 30 32 35 36 37 40 41 42 41 42 44 45 46 49 52
27 23 18 16 18 19 24 26 27 28 28 28 31 32 33 32 32 32 32 29 27 26 24 24 25 26 28 30 32 34 36 38 39 40 42 45 45 43 44 45 47 50 52 55
24 19 16 14 13 18 21 23 24 27 27 28 29 30 31 33 34 33 31 29 26 25 24 24 26 28 31 33 38 39 40 42 43 44 45 46 47 46 47 47 49 52 56 58
24 19 18 16 20 23 27 28 31 33 33 34 36 37 36 34 33 30 28 27 24 24 24 26 29 33 36 39 40 43 46 47 47 47 47 46 48 50 50 51 54 56 59 61
27 24 23 23 24 25 29 31 32 31 32 33 34 34 31 29 28 29 28 26 24 25 27 30 34 37 40 43 45 48 49 50 49 48 48 48 50 53 55 57 58 61 64 65
28 25 24 25 27 28 30 31 33 33 31 31 32 32 32 31 29 27 26 27 27 29 31 33 36 38 43 45 47 48 50 50 49 48 49 51 53 55 59 61 63 64 67 69
28 26 26 27 27 26 28 28 30 30 32 34 33 32 31 29 29 27 27 26 27 30 32 35 38 41 45 47 49 50 50 50 50 51 53 55 57 61 63 64 67 69 71 73
30 27 24 24 23 26 28 30 30 31 33 33 31 30 28 28 28 28 28 29 30 32 34 37 40 43 46 48 49 50 51 51 52 54 56 58 61 64 66 67 70 72 75 77
32 31 30 30 31 30 29 29 30 30 28 28 28 28 28 30 30 31 31 31 32 35 36 37 40 44 47 48 49 50 51 52 54 56 59 62 65 68 69 71 73 75 78 81
Wind_Direction_500mb
240 260 225 191 206 216 219 231 221 245 240 257 255 248 265 254 233 233 214 221 229 237 242 238 238 236 238 243 245 251 257 265 272 278 282 285 286 288 292 302 315 328 338 339
238 236 235 244 198 210 223 235 247 252 261 268 275 276 279 279 278 242 227 227 234 241 242 240 238 238 239 241 241 245 251 255 261 267 272 273 273 272 276 289 314 330 336 338
236 235 237 252 235 220 223 227 228 240 249 259 267 268 265 264 265 263 257 242 238 245 242 240 239 237 237 238 238 239 243 248 253 258 262 262 262 265 277 298 317 326 332 335
249 78 236 235 231 219 229 234 232 243 250 253 257 267 271 272 270 266 261 254 247 241 240 240 240 236 234 235 235 237 239 243 246 249 250 251 255 269 291 309 319 326 332 332
234 237 260 305 231 207 206 239 233 238 247 257 266 272 281 274 269 264 264 267 264 242 236 235 236 234 230 228 228 231 233 234 236 237 241 246 255 274 293 308 319 324 329 329
191 230 237 242 237 236 183 238 241 236 242 244 254 262 268 280 276 262 259 257 245 229 227 228 230 227 225 222 220 222 224 224 226 227 234 250 267 289 307 317 322 325 327 327
228 242 251 229 139 118 167 235 248 239 234 247 239 244 267 280 275 253 243 235 223 219 218 221 223 220 219 216 218 218 217 216 218 222 231 242 267 294 305 315 320 322 323 325
219 231 247 212 122 187 219 187 230 248 235 243 254 258 269 272 263 250 230 211 210 211 213 220 217 213 212 212 212 210 208 208 215 222 234 253 277 294 305 312 314 317 317 318
173 215 218 198 207 226 235 243 250 267 268 257 251 260 267 260 254 244 230 218 219 216 213 209 204 205 207 208 202 201 201 208 215 226 241 262 286 301 307 310 313 315 317 319
208 250 238 244 259 245 241 253 261 265 269 273 262 257 258 255 248 240 228 223 221 216 208 200 199 198 203 201 197 199 206 214 223 235 250 276 294 302 306 307 309 314 316 317
259 260 298 280 264 266 266 267 265 264 265 265 259 258 262 253 244 235 226 220 217 217 209 201 196 198 187 190 192 198 207 217 230 247 265 283 291 300 306 306 310 314 316 318
236 240 216 246 260 260 262 265 264 264 265 267 266 263 254 242 237 232 221 214 208 208 207 198 190 188 185 186 195 204 214 224 238 254 272 287 295 301 303 303 306 310 316 316
251 264 266 266 265 258 252 255 261 266 269 270 264 254 246 234 227 224 220 212 204 197 197 197 188 188 188 192 202 212 227 235 251 274 288 294 297 297 294 294 303 309 312 312
252 253 251 251 252 257 257 256 260 264 262 257 250 242 235 225 217 214 211 209 197 187 191 195 197 195 195 204 218 223 233 250 269 283 291 295 296 298 301 306 308 311 313 313
255 252 257 257 252 254 257 257 253 249 246 239 232 229 223 219 214 206 195 194 193 190 193 199 203 205 209 213 222 237 254 267 279 288 290 290 292 298 304 308 310 312 313 312
254 253 254 255 256 250 247 243 239 234 227 221 220 216 209 205 200 197 188 195 196 196 200 206 210 211 217 228 240 253 265 277 283 284 287 293 297 298 299 303 307 310 315 319
248 248 247 247 246 246 247 244 238 233 218 208 205 202 198 195 196 197 193 194 196 201 205 210 218 226 233 245 259 271 279 284 287 289 289 289 290 294 300 304 308 311 315 318
243 247 246 243 250 242 231 223 218 214 210 207 202 199 199 199 199 197 198 199 201 204 211 218 228 240 252 262 272 281 286 288 287 287 288 290 294 299 303 304 307 308 311 313
224 228 239 248 236 236 226 217 212 213 209 207 206 204 202 201 199 198 198 201 207 214 222 231 242 253 263 271 277 283 286 287 289 290 289 291 295 298 299 300 303 306 309 311
225 233 251 251 242 230 212 209 204 200 197 198 196 197 198 198 197 201 206 212 218 225 233 245 257 265 273 277 280 282 285 287 289 288 290 293 294 295 296 299 302 305 306 308
222 228 237 229 216 200 192 191 195 198 199 201 204 204 203 202 203 206 211 218 227 236 247 260 271 277 281 283 285 286 289 290 288 289 290 292 293 295 297 300 302 303 305 306
209 216 207 204 199 195 189 192 196 199 199 200 198 198 201 203 208 212 217 226 233 247 261 272 279 281 281 283 285 287 289 290 291 291 291 291 292 295 298 300 302 304 304 305
202 202 206 209 207 205 206 203 205 206 206 204 205 206 208 213 216 220 227 237 251 263 271 276 278 281 283 285 287 288 289 289 290 290 291 293 294 296 299 300 302 303 305 306
204 208 210 211 210 211 213 212 208 204 202 204 204 207 215 219 222 230 238 247 255 265 274 279 281 281 282 285 286 286 287 289 290 291 292 293 295 297 298 300 301 303 305 306
213 216 217 217 218 215 210 211 212 213 214 213 213 216 223 230 237 242 249 255 264 274 280 282 283 285 287 288 288 289 290 291 292 292 293 295 297 297 298 300 302 304 305 305
222 224 225 227 225 223 223 222 222 220 220 222 225 228 233 241 248 254 256 262 270 279 285 286 286 286 287 289 290 290 291 292 293 293 294 295 296 296 298 300 302 303 303 304
223 224 223 224 226 226 228 228 227 226 230 235 241 244 248 251 253 255 259 264 273 282 289 291 290 290 291 291 290 290 290 291 292 294 295 296 297 299 301 302 301 302 302 303
Wind_Speed_850mb
34 22 10 14 23 32 36 47 27 45 42 49 33 20 35 37 45 39 45 59 61 60 61 63 65 60 55 49 39 34 32 31 29 28 26 24 21 19 15 11 9 9 10 12
25 30 30 28 23 22 45 45 34 48 44 44 52 53 47 51 42 45 60 71 70 68 71 74 73 67 60 53 45 39 37 33 30 27 25 22 18 15 11 8 7 9 12 16
24 27 16 21 45 37 30 33 38 35 49 43 48 42 55 54 56 70 64 67 73 79 81 79 80 74 64 57 49 44 41 35 31 27 25 21 18 14 11 11 13 15 18 21
13 6 28 22 22 34 43 37 33 36 43 52 53 77 77 53 55 61 60 66 78 82 83 84 82 74 67 57 49 44 39 33 28 24 22 19 17 14 14 15 17 19 22 26
16 21 22 16 17 21 19 36 36 43 47 64 71 72 68 80 67 73 77 72 74 84 89 87 82 73 62 55 47 42 37 31 27 23 20 18 15 14 14 14 16 20 23 27
9 16 30 23 29 43 9 8 30 45 31 35 57 23 30 79 51 45 55 60 67 75 82 77 71 62 56 50 45 41 36 30 26 22 19 16 14 13 15 18 21 25 27 31
21 15 10 12 15 27 16 24 52 46 56 50 19 33 45 51 40 37 41 49 64 72 70 65 57 53 53 49 47 39 33 28 24 21 17 15 13 15 17 20 24 28 31 32
12 19 31 21 14 24 26 11 25 26 34 44 52 46 45 42 42 37 41 49 59 64 64 58 49 49 49 47 41 36 31 26 24 20 16 13 13 15 19 23 26 29 32 32
13 11 14 38 46 64 61 45 41 41 43 40 41 50 48 42 41 39 41 46 45 54 57 52 54 54 51 45 40 34 29 27 22 18 15 14 15 18 22 25 28 30 33 37
2 21 19 28 27 29 31 32 41 45 48 45 38 43 41 44 45 46 44 45 49 50 51 49 52 56 46 39 35 30 25 22 19 17 13 13 15 19 23 27 30 32 36 38
10 22 8 27 38 41 45 49 49 52 52 51 44 50 50 50 51 52 50 49 49 48 47 49 51 46 44 39 34 29 25 21 18 16 13 15 18 21 24 28 30 32 34 38
17 20 21 40 56 56 55 56 53 49 49 48 46 45 45 47 50 54 53 51 50 49 49 49 47 44 38 33 28 24 20 18 17 17 16 18 21 22 24 26 26 28 32 36
38 57 52 55 47 36 33 37 40 41 44 44 44 44 45 48 50 50 48 51 52 47 43 39 39 39 34 29 25 21 20 20 18 17 18 22 24 26 26 25 28 28 31 37
64 70 50 56 39 40 37 38 38 39 41 40 40 41 43 45 47 46 45 45 42 42 44 41 38 33 29 25 27 26 19 17 18 20 23 26 28 30 32 33 34 32 32 38
72 65 61 45 36 39 39 35 35 36 37 36 35 38 39 42 43 43 44 43 43 43 45 46 43 37 31 28 22 18 18 20 22 25 28 29 30 31 33 36 40 43 39 31
38 42 46 45 39 36 34 32 32 34 32 32 35 36 36 37 39 47 42 48 47 48 45 41 33 28 23 20 18 20 22 24 26 28 30 30 31 34 37 40 42 42 40 41
29 26 35 40 43 41 40 34 33 32 33 34 35 38 41 41 43 44 45 43 41 36 31 27 25 24 23 20 20 23 26 27 28 31 33 34 35 37 39 42 43 43 43 41
32 30 22 27 28 35 35 34 32 31 34 37 41 43 42 42 41 40 38 36 34 30 29 28 25 22 21 23 25 28 29 31 33 34 36 36 37 40 42 43 44 46 46 44
27 24 20 18 20 19 28 30 31 31 32 32 35 35 33 33 33 33 35 34 32 30 26 24 24 24 26 27 28 30 32 35 36 37 40 41 42 41 42 44 45 46 49 52
27 23 18 16 18 19 24 26 27 28 28 28 31 32 33 32 32 32 32 29 27 26 24 24 25 26 28 30 32 34 36 38 39 40 42 45 45 43 44 45 47 50 52 55
24 19 16 14 13 18 21 23 24 27 27 28 29 30 31 33 34 33 31 29 26 25 24 24 26 28 31 33 38 39 40 42 43 44 45 46 47 46 47 47 49 52 56 58
24 19 18 16 20 23 27 28 31 33 33 34 36 37 36 34 33 30 28 27 24 24 24 26 29 33 36 39 40 43 46 47 47 47 47 46 48 50 50 51 54 56 59 61
27 24 23 23 24 25 29 31 32 31 32 33 34 34 31 29 28 29 28 26 24 25 27 30 34 37 40 43 45 48 49 50 49 48 48 48 50 53 55 57 58 61 64 65
28 25 24 25 27 28 30 31 33 33 31 31 32 32 32 31 29 27 26 27 27 29 31 33 36 38 43 45 47 48 50 50 49 48 49 51 53 55 59 61 63 64 67 69
28 26 26 27 27 26 28 28 30 30 32 34 33 32 31 29 29 27 27 26 27 30 32 35 38 41 45 47 49 50 50 50 50 51 53 55 57 61 63 64 67 69 71 73
30 27 24 24 23 26 28 30 30 31 33 33 31 30 28 28 28 28 28 29 30 32 34 37 40 43 46 48 49 50 51 51 52 54 56 58 61 64 66 67 70 72 75 77
32 31 30 30 31 30 29 29 30 30 28 28 28 28 28 30 30 31 31 31 32 35 36 37 40 44 47 48 49 50 51 52 54 56 59 62 65 68 69 71 73 75 78 81
Wind_Direction_850mb
240 260 225 191 206 216 219 231 221 245 240 257 255 248 265 254 233 233 214 221 229 237 242 238 238 236 238 243 245 251 257 265 272 278 282 285 286 288 292 302 315 328 338 339
238 236 235 244 198 210 223 235 247 252 261 268 275 276 279 279 278 242 227 227 234 241 242 240 238 238 239 241 241 245 251 255 261 267 272 273 273 272 276 289 314 330 336 338
236 235 237 252 235 220 223 227 228 240 249 259 267 268 265 264 265 263 257 242 238 245 242 240 239 237 237 238 238 239 243 248 253 258 262 262 262 265 277 298 317 326 332 335
249 78 236 235 231 219 229 234 232 243 250 253 257 267 271 272 270 266 261 254 247 241 240 240 240 236 234 235 235 237 239 243 246 249 250 251 255 269 291 309 319 326 332 332
234 237 260 305 231 207 206 239 233 238 247 257 266 272 281 274 269 264 264 267 264 242 236 235 236 234 230 228 228 231 233 234 236 237 241 246 255 274 293 308 319 324 329 329
191 230 237 242 237 236 183 238 241 236 242 244 254 262 268 280 276 262 259 257 245 229 227 228 230 227 225 222 220 222 224 224 226 227 234 250 267 289 307 317 322 325 327 327
228 242 251 229 139 118 167 235 248 239 234 247 239 244 267 280 275 253 243 235 223 219 218 221 223 220 219 216 218 218 217 216 218 222 231 242 267 294 305 315 320 322 323 325
219 231 247 212 122 187 219 187 230 248 235 243 254 258 269 272 263 250 230 211 210 211 213 220 217 213 212 212 212 210 208 208 215 222 234 253 277 294 305 312 314 317 317 318
173 215 218 198 207 226 235 243 250 267 268 257 251 260 267 260 254 244 230 218 219 216 213 209 204 205 207 208 202 201 201 208 215 226 241 262 286 301 307 310 313 315 317 319
208 250 238 244 259 245 241 253 261 265 269 273 262 257 258 255 248 240 228 223 221 216 208 200 199 198 203 201 197 199 206 214 223 235 250 276 294 302 306 307 309 314 316 317
259 260 298 280 264 266 266 267 265 264 265 265 259 258 262 253 244 235 226 220 217 217 209 201 196 198 187 190 192 198 207 217 230 247 265 283 291 300 306 306 310 314 316 318
236 240 216 246 260 260 262 265 264 264 265 267 266 263 254 242 237 232 221 214 208 208 207 198 190 188 185 186 195 204 214 224 238 254 272 287 295 301 303 303 306 310 316 316
251 264 266 266 265 258 252 255 261 266 269 270 264 254 246 234 227 224 220 212 204 197 197 197 188 188 188 192 202 212 227 235 251 274 288 294 297 297 294 294 303 309 312 312
252 253 251 251 252 257 257 256 260 264 262 257 250 242 235 225 217 214 211 209 197 187 191 195 197 195 195 204 218 223 233 250 269 283 291 295 296 298 301 306 308 311 313 313
255 252 257 257 252 254 257 257 253 249 246 239 232 229 223 219 214 206 195 194 193 190 193 199 203 205 209 213 222 237 254 267 279 288 290 290 292 298 304 308 310 312 313 312
254 253 254 255 256 250 247 243 239 234 227 221 220 216 209 205 200 197 188 195 196 196 200 206 210 211 217 228 240 253 265 277 283 284 287 293 297 298 299 303 307 310 315 319
248 248 247 247 246 246 247 244 238 233 218 208 205 202 198 195 196 197 193 194 196 201 205 210 218 226 233 245 259 271 279 284 287 289 289 289 290 294 300 304 308 311 315 318
243 247 246 243 250 242 231 223 218 214 210 207 202 199 199 199 199 197 198 199 201 204 211 218 228 240 252 262 272 281 286 288 287 287 288 290 294 299 303 304 307 308 311 313
224 228 239 248 236 236 226 217 212 213 209 207 206 204 202 201 199 198 198 201 207 214 222 231 242 253 263 271 277 283 286 287 289 290 289 291 295 298 299 300 303 306 309 311
225 233 251 251 242 230 212 209 204 200 197 198 196 197 198 198 197 201 206 212 218 225 233 245 257 265 273 277 280 282 285 287 289 288 290 293 294 295 296 299 302 305 306 308
222 228 237 229 216 200 192 191 195 198 199 201 204 204 203 202 203 206 211 218 227 236 247 260 271 277 281 283 285 286 289 290 288 289 290 292 293 295 297 300 302 303 305 306
209 216 207 204 199 195 189 192 196 199 199 200 198 198 201 203 208 212 217 226 233 247 261 272 279 281 281 283 285 287 289 290 291 291 291 291 292 295 298 300 302 304 304 305
202 202 206 209 207 205 206 203 205 206 206 204 205 206 208 213 216 220 227 237 251 263 271 276 278 281 283 285 287 288 289 289 290 290 291 293 294 296 299 300 302 303 305 306
204 208 210 211 210 211 213 212 208 204 202 204 204 207 215 219 222 230 238 247 255 265 274 279 281 281 282 285 286 286 287 289 290 291 292 293 295 297 298 300 301 303 305 306
213 216 217 217 218 215 210 211 212 213 214 213 213 216 223 230 237 242 249 255 264 274 280 282 283 285 287 288 288 289 290 291 292 292 293 295 297 297 298 300 302 304 305 305
222 224 225 227 225 223 223 222 222 220 220 222 225 228 233 241 248 254 256 262 270 279 285 286 286 286 287 289 290 290 291 292 293 293 294 295 296 296 298 300 302 303 303 304
223 224 223 224 226 226 228 228 227 226 230 235 241 244 248 251 253 255 259 264 273 282 289 291 290 290 291 291 290 290 290 291 292 294 295 296 297 299 301 302 301 302 302 303